Location: Gellin
(53.4498°N, 14.3207°E)
Time: 23:27:13
(UTC+00:00)

Helios 1A Rocket - Pass Details

Date: 03 March 2021
Orbit: 563 x 585 km, 98.3° (Epoch: 12 April)

Event Time Altitude Azimuth Distance (km) Brightness Sun altitude
Rises 17:39:36 0° 156° (SSE) 2,768 6.2 -9.0°
Reaches altitude 10° 17:41:44 10° 155° (SSE) 1,872 5.3 -9.3°
Maximum altitude 17:45:46 70° 71° (ENE) 609 2.8 -9.9°
Drops below altitude 10° 17:49:48 10° 348° (NNW) 1,876 5.7 -10.5°
Sets 17:51:57 0° 347° (NNW) 2,776 6.6 -10.8°
